Simultaneous Nadir Overpasses (SNOs) Predictions

Prediction of SNOs between GOES-16 and TERRA Satellite Orbit:

Table of predicted SNOs for the next 14.0 days since TLE Epoch: 11/23/2024
Index Date Time (GOES-16) GOES-16 Lat,Lon TERRA Lat,Lon Distance(km) Time Diff (sec)
1 11/24/2024 02:27:10 0.03, -75.19 0.47, -72.97 251.72 80
2 11/24/2024 14:49:33 -0.03, -75.23 0.49, -77.78 288.68 80
3 11/26/2024 14:28:37 -0.03, -75.26 -0.44, -73.37 214.30 80
4 11/27/2024 02:51:06 0.03, -75.23 -0.61, -78.19 336.64 80
5 11/29/2024 02:30:09 0.03, -75.26 0.30, -73.78 167.14 80
6 11/29/2024 14:52:31 -0.02, -75.30 0.68, -78.57 372.81 80
7 12/01/2024 14:31:34 -0.02, -75.32 -0.29, -74.17 131.63 80
8 12/02/2024 02:54:03 0.01, -75.30 -0.75, -78.99 419.07 80
9 12/04/2024 02:33:04 0.00, -75.33 0.14, -74.57 85.96 80
10 12/04/2024 14:52:46 -0.00, -75.37 0.81, -79.37 453.66 80
11 12/06/2024 14:37:06 0.00, -75.41 -0.07, -74.94 52.36 80
